Kimball, NE

4:06 AM MDT on October 17, 2017 (GMT -0600)
Kimball Municipal-Arraj

Weather History for KIBM - October, 2011

Change the Weather History Date:

Monday, October 17, 2011

  Actual Average (KSNY) Record (KSNY)
Temperature  
Mean Temperature 40 °F -  
Max Temperature 44 °F 62 °F 86 °F (1991)
Min Temperature 35 °F 31 °F 10 °F (1948)
Degree Days  
Heating Degree Days 26    
Moisture  
Dew Point 34 °F    
Average Humidity 79    
Maximum Humidity 93    
Minimum Humidity 61    
Precipitation  
Precipitation 0.00 in - - ()
Sea Level Pressure  
Sea Level Pressure 30.06 in    
Wind  
Wind Speed 12 mph (NW)    
Max Wind Speed 32 mph    
Max Gust Speed 39 mph    
Visibility 9 miles    
Events Rain    
Averages and records for this station are not official NWS values.
T = Trace of Precipitation, MM = Missing Value Source: NWS Daily Summary

Daily Weather History Graph

Daily Weather History Graph

Search for Another Location

Airport or City:

Trip Planner

Search our weather history database for the weather conditions in past years. The results will help you decide how hot, cold, wet, or windy it might be!

Date:

Astronomy

Oct. 17, 2011 Rise Set
Actual Time 8:08 AM CDT 7:11 PM CDT
Civil Twilight 7:40 AM CDT 7:39 PM CDT
Nautical Twilight 7:08 AM CDT 8:10 PM CDT
Astronomical Twilight 6:36 AM CDT 8:42 PM CDT
Moon 10:52 PM CDT 1:18 PM CDT
Length of Visible Light 11h 58m
Length of Day
11h 02m
Waning Gibbous, 74% of the Moon is Illuminated
Oct 17
Waning Gibbous
Oct 19
Last Quarter
Oct 26
New
Nov 2
First Quarter
Nov 10
Full

Hourly Weather History & Observations

Time (CDT) Temp. Windchill Dew Point Humidity Pressure Visibility Wind Dir Wind Speed Gust Speed Precip Events Conditions
12:15 AM 42.8 °F 41.1 °F 32.0 °F 66% 30.01 in 10.0 mi South 3.5 mph - N/A   Overcast
12:35 AM 44.6 °F 41.4 °F 32.0 °F 61% 30.02 in 10.0 mi SW 5.8 mph - N/A   Mostly Cloudy
12:55 AM 42.8 °F 39.3 °F 32.0 °F 66% 30.00 in 10.0 mi South 5.8 mph - N/A   Scattered Clouds
1:15 AM 42.8 °F 41.1 °F 32.0 °F 66% 29.99 in 10.0 mi South 3.5 mph - N/A   Mostly Cloudy
1:35 AM 42.8 °F 38.0 °F 32.0 °F 66% 29.98 in 10.0 mi South 8.1 mph - N/A   Mostly Cloudy
1:55 AM 42.8 °F - 32.0 °F 66% 29.96 in 10.0 mi Calm Calm - N/A   Mostly Cloudy
2:15 AM 42.8 °F 39.3 °F 32.0 °F 66% 29.96 in 10.0 mi South 5.8 mph - N/A   Mostly Cloudy
3:15 AM 42.8 °F 38.6 °F 32.0 °F 66% 29.95 in 10.0 mi South 6.9 mph - N/A   Overcast
3:35 AM 42.8 °F 38.6 °F 32.0 °F 66% 29.94 in 10.0 mi South 6.9 mph - N/A   Mostly Cloudy
3:55 AM 42.8 °F 38.0 °F 32.0 °F 66% 29.92 in 10.0 mi South 8.1 mph - N/A   Scattered Clouds
4:15 AM 41.0 °F 35.8 °F 32.0 °F 70% 29.91 in 10.0 mi South 8.1 mph - N/A   Scattered Clouds
4:35 AM 41.0 °F 35.2 °F 32.0 °F 70% 29.90 in 10.0 mi South 9.2 mph - N/A   Scattered Clouds
5:15 AM 41.0 °F 37.1 °F 32.0 °F 70% 29.90 in 10.0 mi South 5.8 mph - N/A   Mostly Cloudy
5:35 AM 42.8 °F 38.6 °F 32.0 °F 66% 29.89 in 10.0 mi South 6.9 mph - N/A   Overcast
5:55 AM 42.8 °F 38.0 °F 33.8 °F 70% 29.90 in 10.0 mi SSW 8.1 mph - N/A Rain Light Rain
6:15 AM 41.0 °F 38.0 °F 33.8 °F 76% 29.90 in 10.0 mi SSW 4.6 mph - N/A   Overcast
6:35 AM 41.0 °F 36.4 °F 33.8 °F 76% 29.90 in 10.0 mi SSW 6.9 mph - N/A   Overcast
6:55 AM 42.8 °F 38.6 °F 35.6 °F 76% 29.89 in 10.0 mi SSW 6.9 mph - N/A Rain Light Rain
7:15 AM 41.0 °F 36.4 °F 35.6 °F 81% 29.89 in 10.0 mi SSW 6.9 mph - N/A   Overcast
7:35 AM 42.8 °F 41.1 °F 35.6 °F 76% 29.90 in 10.0 mi WSW 3.5 mph - N/A Rain Rain
7:55 AM 41.0 °F 39.0 °F 35.6 °F 81% 29.90 in 10.0 mi WNW 3.5 mph - N/A   Mostly Cloudy
8:15 AM 41.0 °F 35.8 °F 35.6 °F 81% 29.91 in 10.0 mi WNW 8.1 mph - N/A   Scattered Clouds
8:35 AM 42.8 °F 36.2 °F 35.6 °F 76% 29.92 in 10.0 mi NW 12.7 mph 16.1 mph N/A   Mostly Cloudy
8:55 AM 44.6 °F 35.9 °F 35.6 °F 71% 29.93 in 10.0 mi NNW 23.0 mph 29.9 mph N/A   Overcast
9:15 AM 42.8 °F 33.3 °F 37.4 °F 81% 29.95 in 10.0 mi NNW 24.2 mph 31.1 mph N/A   Overcast
9:35 AM 42.8 °F 32.9 °F 37.4 °F 81% 29.97 in 10.0 mi NNW 26.5 mph 31.1 mph N/A   Overcast
9:55 AM 41.0 °F 31.1 °F 35.6 °F 81% 29.99 in 10.0 mi NNW 23.0 mph 32.2 mph N/A   Overcast
10:15 AM 41.0 °F 30.9 °F 35.6 °F 81% 30.01 in 10.0 mi NNW 24.2 mph 32.2 mph N/A   Overcast
10:35 AM 39.2 °F 28.5 °F 33.8 °F 81% 30.02 in 10.0 mi NNW 24.2 mph 31.1 mph N/A   Overcast
10:55 AM 37.4 °F 24.8 °F 33.8 °F 87% 30.04 in 10.0 mi NNW 31.1 mph 36.8 mph N/A   Overcast
11:15 AM 37.4 °F 25.2 °F 33.8 °F 87% 30.06 in 10.0 mi NNW 28.8 mph 38.0 mph N/A   Overcast
11:35 AM 37.4 °F 25.4 °F 33.8 °F 87% 30.07 in 7.0 mi NNW 27.6 mph 35.7 mph N/A   Overcast
11:55 AM 37.4 °F 25.9 °F 33.8 °F 87% 30.08 in 7.0 mi NNW 25.3 mph 35.7 mph N/A Rain Light Rain
12:15 PM 37.4 °F 25.0 °F 35.6 °F 93% 30.09 in 7.0 mi North 29.9 mph 38.0 mph N/A   Drizzle
12:35 PM 37.4 °F 26.1 °F 35.6 °F 93% 30.10 in 4.0 mi NNW 24.2 mph 33.4 mph N/A Rain Rain
12:55 PM 37.4 °F 24.8 °F 35.6 °F 93% 30.12 in 4.0 mi NNW 31.1 mph 38.0 mph N/A Rain Rain
1:15 PM 37.4 °F 25.6 °F 35.6 °F 93% 30.13 in 5.0 mi NNW 26.5 mph 38.0 mph N/A   Light Drizzle
1:55 PM 37.4 °F 25.2 °F 35.6 °F 93% 30.14 in 7.0 mi NNW 28.8 mph 35.7 mph N/A Rain Light Rain
2:15 PM 37.4 °F 24.6 °F 35.6 °F 93% 30.15 in 7.0 mi North 32.2 mph 39.1 mph N/A Rain Light Rain
2:35 PM 39.2 °F 29.0 °F 35.6 °F 87% 30.16 in 7.0 mi North 21.9 mph 32.2 mph N/A   Overcast
2:55 PM 37.4 °F 25.6 °F 35.6 °F 93% 30.16 in 10.0 mi North 26.5 mph 38.0 mph N/A   Overcast
3:15 PM 37.4 °F 26.1 °F 35.6 °F 93% 30.17 in 7.0 mi NNW 24.2 mph - N/A   Overcast
3:35 PM 37.4 °F 26.1 °F 33.8 °F 87% 30.18 in 10.0 mi NNW 24.2 mph 31.1 mph N/A Rain Rain
3:55 PM 37.4 °F 26.6 °F 35.6 °F 93% 30.19 in 10.0 mi North 21.9 mph 27.6 mph N/A   Overcast
4:15 PM 39.2 °F 29.6 °F 33.8 °F 81% 30.21 in 10.0 mi North 19.6 mph 27.6 mph N/A   Overcast
4:35 PM 39.2 °F 30.2 °F 33.8 °F 81% 30.21 in 10.0 mi NNW 17.3 mph 27.6 mph N/A   Overcast
4:55 PM 39.2 °F 29.3 °F 33.8 °F 81% 30.21 in 10.0 mi North 20.7 mph 28.8 mph N/A   Overcast
5:15 PM 39.2 °F 29.8 °F 33.8 °F 81% 30.21 in 10.0 mi North 18.4 mph - N/A   Overcast
5:35 PM 41.0 °F 33.1 °F 33.8 °F 76% 30.21 in 10.0 mi NNW 15.0 mph 21.9 mph N/A   Overcast
5:55 PM 41.0 °F 31.9 °F 33.8 °F 76% 30.21 in 10.0 mi North 19.6 mph - N/A   Mostly Cloudy
6:15 PM 41.0 °F 33.5 °F 33.8 °F 76% 30.21 in 10.0 mi NNW 13.8 mph - N/A   Scattered Clouds
6:35 PM 41.0 °F 35.2 °F 33.8 °F 76% 30.22 in 10.0 mi North 9.2 mph - N/A   Scattered Clouds
7:15 PM 37.4 °F 32.8 °F 32.0 °F 81% 30.22 in 10.0 mi NNW 5.8 mph - N/A   Scattered Clouds
7:35 PM 37.4 °F 31.4 °F 32.0 °F 81% 30.21 in 10.0 mi NNW 8.1 mph - N/A   Clear
8:15 PM 35.6 °F 30.7 °F 32.0 °F 87% 30.23 in 10.0 mi NW 5.8 mph - N/A   Clear
8:35 PM 37.4 °F 30.3 °F 32.0 °F 81% 30.23 in 10.0 mi NNW 10.4 mph - N/A   Clear
8:55 PM 37.4 °F 30.3 °F 30.2 °F 75% 30.22 in 10.0 mi NNW 10.4 mph - N/A   Clear
9:15 PM 35.6 °F 28.6 °F 30.2 °F 81% 30.21 in 10.0 mi NNW 9.2 mph - N/A   Clear
9:35 PM 35.6 °F 29.9 °F 30.2 °F 81% 30.22 in 10.0 mi NW 6.9 mph - N/A   Clear
9:55 PM 33.8 °F 27.0 °F 30.2 °F 87% 30.22 in 10.0 mi NW 8.1 mph - N/A   Clear
10:15 PM 33.8 °F 27.7 °F 30.2 °F 87% 30.23 in 10.0 mi NW 6.9 mph - N/A   Clear
10:35 PM 33.8 °F 26.4 °F 30.2 °F 87% 30.23 in 10.0 mi WNW 9.2 mph - N/A   Clear
10:55 PM 33.8 °F 27.7 °F 30.2 °F 87% 30.23 in 10.0 mi WNW 6.9 mph - N/A   Clear
11:15 PM 33.8 °F 27.0 °F 30.2 °F 87% 30.23 in 10.0 mi WNW 8.1 mph - N/A   Clear
11:35 PM 33.8 °F 25.8 °F 30.2 °F 87% 30.23 in 10.0 mi WNW 10.4 mph - N/A   Clear
11:55 PM 33.8 °F 25.8 °F 30.2 °F 87% 30.23 in 10.0 mi WNW 10.4 mph - N/A   Clear